CW6532 Weather Reports


Display with metric or nautical units.
time (UTC)temp
F
wind
direction
speed
MPH
gust
MPH
rain 1hr
in
rain 24hr
in
rain mn
in
humidity
%
barometer
mb
20260505182328 71 248 6.0 16.0 0.00 0.32 0.22 57 1021.1
20260505181334 71 249 8.0 12.0 0.00 0.32 0.22 54 1021.1
20260505180319 70 257 5.0 12.0 0.00 0.32 0.22 58 1021.3
20260505175327 70 274 4.0 10.0 0.00 0.32 0.22 58 1021.4
20260505174335 69 104 1.0 9.0 0.00 0.32 0.22 59 1021.4
20260505173356 68 251 6.0 13.0 0.00 0.32 0.22 62 1021.5
20260505172324 68 336 4.0 8.0 0.00 0.32 0.22 62 1021.5
20260505171333 68 267 2.0 7.0 0.00 0.32 0.22 62 1021.5
20260505170343 67 345 3.0 6.0 0.00 0.32 0.22 65 1021.4
20260505165355 66 182 2.0 4.0 0.00 0.32 0.22 66 1021.5
20260505164320 65 257 1.0 6.0 0.00 0.32 0.22 71 1021.6
20260505163336 65 257 2.0 4.0 0.00 0.32 0.22 71 1021.6
20260505162322 64 240 1.0 5.0 0.00 0.32 0.22 72 1021.6
20260505161329 64 263 1.0 5.0 0.00 0.32 0.22 73 1021.6
20260505160323 63 263 2.0 4.0 0.00 0.32 0.22 74 1021.4
20260505153351 62 76 0.0 0.0 0.00 0.32 0.22 83 1021.4
20260505152338 62 76 0.0 1.0 0.00 0.32 0.22 84 1021.4
20260505151326 62 76 0.0 1.0 0.00 0.32 0.22 86 1021.4
20260505150334 61 76 0.0 2.0 0.00 0.32 0.22 88 1021.2
20260505140329 60 76 3.0 4.0 0.00 0.32 0.22 95 1020.9
20260505124343 58 155 3.0 9.0 0.02 0.32 0.22 96 1020.3
20260505123358 58 144 3.0 6.0 0.02 0.32 0.22 96 1020.1
20260505122326 58 73 0.0 3.0 0.02 0.31 0.21 96 1020.2
20260505121335 58 21 0.0 2.0 0.02 0.31 0.21 96 1020.1
20260505120326 58 21 0.0 3.0 0.03 0.31 0.21 96 1020.0
20260505115334 58 20 4.0 5.0 0.03 0.30 0.20 96 1019.5
20260505114322 58 67 2.0 4.0 0.03 0.30 0.20 96 1019.6
20260505113344 57 135 0.0 7.0 0.03 0.30 0.20 96 1019.8
20260505112333 57 46 2.0 3.0 0.03 0.29 0.19 96 1020.3
20260505111323 57 55 3.0 6.0 0.04 0.29 0.19 96 1019.9
20260505110333 57 110 1.0 3.0 0.03 0.28 0.18 96 1020.4
20260505101357 57 53 4.0 9.0 0.02 0.25 0.15 94 1021.1
20260505100323 57 67 6.0 9.0 0.03 0.25 0.15 93 1021.0
20260505095353 57 124 7.0 9.0 0.03 0.25 0.15 92 1021.1
20260505094336 57 109 7.0 17.0 0.04 0.25 0.15 90 1021.2
20260505093328 57 140 9.0 14.0 0.04 0.24 0.15 90 1021.4
20260505092336 57 175 9.0 14.0 0.04 0.24 0.14 91 1021.8
20260505091325 57 166 8.0 13.0 0.04 0.23 0.13 91 1021.8
20260505090336 57 169 9.0 14.0 0.05 0.22 0.12 92 1022.5
20260505085325 57 163 8.0 12.0 0.07 0.22 0.12 93 1022.7
20260505084334 57 141 6.0 11.0 0.07 0.21 0.11 93 1022.9
20260505083353 57 164 5.0 9.0 0.08 0.20 0.10 93 1023.2
20260505082320 57 167 7.0 10.0 0.08 0.20 0.10 92 1023.5
20260505081327 58 189 6.0 8.0 0.08 0.19 0.09 91 1023.7
20260505080337 58 153 2.0 5.0 0.07 0.17 0.07 90 1024.1
20260505075327 58 159 1.0 5.0 0.05 0.15 0.05 90 1024.1
20260505074337 58 201 2.0 5.0 0.05 0.14 0.04 89 1024.2
20260505073329 58 176 2.0 3.0 0.03 0.12 0.02 88 1024.3
20260505072337 58 176 0.0 0.0 0.04 0.12 0.02 87 1024.1
20260505071323 58 176 1.0 3.0 0.04 0.11 0.01 86 1024.0
20260505070333 59 45 0.0 3.0 0.03 0.10 0.00 84 1024.0
20260505065333 59 45 1.0 4.0 0.04 0.10 0.10 81 1023.8
20260505064401 59 45 3.0 4.0 0.03 0.09 0.09 79 1023.6
20260505063330 59 27 3.0 4.0 0.03 0.09 0.09 79 1023.7
20260505062334 59 27 0.0 2.0 0.02 0.08 0.08 78 1023.9
20260505061318 59 27 2.0 3.0 0.01 0.07 0.07 77 1023.8
20260505060347 60 271 2.0 5.0 0.01 0.07 0.07 78 1023.8
20260505055334 60 65 4.0 6.0 0.00 0.06 0.06 75 1023.5
20260505054342 60 71 4.0 8.0 0.01 0.06 0.06 74 1023.4
20260505053335 60 71 4.0 5.0 0.01 0.06 0.06 70 1023.6
20260505052323 60 71 2.0 5.0 0.01 0.06 0.06 70 1023.9
20260505051332 60 90 1.0 7.0 0.01 0.06 0.06 70 1024.0
20260505050321 59 90 2.0 6.0 0.01 0.06 0.06 72 1023.9
20260505041339 57 74 3.0 5.0 0.01 0.05 0.05 82 1023.6
20260505040348 57 34 3.0 5.0 0.01 0.05 0.05 82 1023.4
20260505035336 56 69 3.0 5.0 0.01 0.05 0.05 82 1023.1
20260505034358 56 54 4.0 9.0 0.01 0.05 0.05 83 1022.9
20260505033334 56 67 4.0 9.0 0.02 0.05 0.05 85 1023.0
20260505032324 57 94 8.0 11.0 0.02 0.05 0.05 84 1023.1
20260505031333 57 51 8.0 11.0 0.01 0.04 0.04 81 1023.2
20260505030323 57 5 4.0 10.0 0.01 0.04 0.04 81 1023.5
20260505025332 58 53 6.0 10.0 0.02 0.04 0.04 78 1023.8
20260505024320 58 360 5.0 13.0 0.02 0.04 0.04 77 1023.9
20260505023318 60 24 5.0 9.0 0.01 0.03 0.03 75 1024.0
20260505022327 60 72 6.0 9.0 0.01 0.03 0.03 70 1023.9
20260505021336 60 31 4.0 8.0 0.01 0.03 0.03 67 1023.8
20260505020344 61 42 4.0 6.0 0.02 0.03 0.03 70 1023.6
20260505015332 61 78 4.0 9.0 0.01 0.02 0.02 68 1023.9
20260505014340 61 87 5.0 12.0 0.02 0.02 0.02 68 1023.8
20260505013332 61 34 5.0 10.0 0.02 0.02 0.02 72 1023.4
20260505012321 61 27 5.0 12.0 0.02 0.02 0.02 70 1022.9
20260505011349 62 50 9.0 13.0 0.02 0.02 0.02 70 1022.4
20260505010335 62 38 6.0 13.0 0.01 0.01 0.01 65 1022.4
20260505005318 64 54 7.0 12.0 0.01 0.01 0.01 59 1022.2
20260505004324 65 48 6.0 10.0 0.00 0.00 0.00 55 1022.6
20260505003339 66 5 4.0 8.0 0.00 0.00 0.00 51 1023.0
20260505002326 67 60 3.0 11.0 0.00 0.00 0.00 47 1022.8
20260505001333 67 35 6.0 11.0 0.00 0.00 0.00 41 1022.4
20260505000321 68 37 6.0 18.0 0.00 0.00 0.00 38 1022.3
20260504235355 71 340 15.0 23.0 0.00 0.00 0.00 29 1021.9
20260504234342 72 319 14.0 23.0 0.00 0.00 0.00 27 1021.8
20260504233335 73 259 12.0 25.0 0.00 0.00 0.00 26 1021.8
20260504232354 74 298 16.0 29.0 0.00 0.00 0.00 24 1021.8
20260504231322 75 298 13.0 22.0 0.00 0.00 0.00 23 1021.7
20260504230327 76 271 11.0 24.0 0.00 0.00 0.00 20 1021.5
20260504225326 77 310 12.0 24.0 0.00 0.00 0.00 19 1021.3
20260504224402 77 270 11.0 18.0 0.00 0.00 0.00 17 1021.3
20260504223332 78 298 17.0 26.0 0.00 0.00 0.00 17 1021.5
20260504222336 78 262 14.0 27.0 0.00 0.00 0.00 16 1021.5
20260504221318 79 236 13.0 21.0 0.00 0.00 0.00 16 1021.5
20260504220325 79 248 15.0 24.0 0.00 0.00 0.00 17 1021.8
20260504215335 80 288 13.0 24.0 0.00 0.00 0.00 18 1021.8
20260504214323 80 263 8.0 19.0 0.00 0.00 0.00 17 1021.5
20260504213336 80 292 11.0 18.0 0.00 0.00 0.00 17 1021.5
20260504212323 80 335 6.0 11.0 0.00 0.00 0.00 16 1021.6
20260504211331 79 289 5.0 15.0 0.00 0.00 0.00 17 1021.6
20260504210320 80 275 9.0 15.0 0.00 0.00 0.00 17 1021.9
20260504205353 79 249 11.0 18.0 0.00 0.00 0.00 17 1021.8
20260504204319 79 330 8.0 14.0 0.00 0.00 0.00 18 1021.9
20260504203335 79 263 10.0 19.0 0.00 0.00 0.00 18 1022.0
20260504202321 79 272 6.0 19.0 0.00 0.00 0.00 18 1022.0
20260504201330 80 265 10.0 17.0 0.00 0.00 0.00 17 1022.3
20260504200322 79 258 14.0 21.0 0.00 0.00 0.00 17 1022.1
20260504195331 79 290 10.0 14.0 0.00 0.00 0.00 17 1022.0
20260504194341 79 277 10.0 15.0 0.00 0.00 0.00 16 1021.9
20260504193318 79 202 10.0 15.0 0.00 0.00 0.00 16 1022.0
20260504192327 78 247 7.0 15.0 0.00 0.00 0.00 18 1022.0
20260504191318 78 250 9.0 13.0 0.00 0.00 0.00 20 1022.3
20260504190324 77 242 5.0 15.0 0.00 0.00 0.00 21 1022.2
20260504185330 77 258 8.0 12.0 0.00 0.00 0.00 22 1022.4
20260504184338 76 242 7.0 15.0 0.00 0.00 0.00 22 1022.8